BEIJING 1 1 28890U 05043A 26162.68115838 .00000503 00000+0 10642-3 0 9999 2 28890 98.2899 295.8637 0013522 302.3930 57.5963 14.63530027 99843 HUANJING 1A (HJ-1A) 1 33320U 08041A 26162.70466561 .00000672 00000+0 86737-4 0 9995 2 33320 97.6679 148.7546 0019511 152.0792 208.1474 14.83971862957595 HUANJING 1B (HJ-1B) 1 33321U 08041B 26162.73871302 .00001231 00000+0 15507-3 0 9990 2 33321 97.6517 151.9760 0035551 199.0029 160.9862 14.83309347957608 YAOGAN-4 1 33446U 08061A 26162.70258333 .00000844 00000+0 10973-3 0 9991 2 33446 97.9309 96.2535 0015781 88.6296 271.6725 14.83189729944852 DEIMOS-1 1 35681U 09041A 26162.69237451 .00000788 00000+0 12360-3 0 9998 2 35681 97.7397 320.1589 0001300 137.8352 222.2958 14.75233344906076 UK-DMC 2 1 35683U 09041C 26162.66698494 .00000564 00000+0 89012-4 0 9996 2 35683 97.8825 297.7689 0001283 76.3490 283.7863 14.76028561905750 DMC3-FM1 1 40715U 15032A 26162.75016111 -.00000145 00000+0 -10779-4 0 9996 2 40715 97.6476 28.1385 0007147 73.5162 286.6839 14.85730821589102 DMC3-FM2 1 40716U 15032B 26162.70488704 .00000155 00000+0 23786-4 0 9994 2 40716 97.6528 29.6647 0007610 78.1816 282.0253 14.85735852589097 DMC3-FM3 1 40717U 15032C 26162.72817444 .00000783 00000+0 96168-4 0 9995 2 40717 97.6581 31.4367 0006872 78.4870 281.7117 14.85728057589105